Regional Weather Roundup
Issued by NWS Upton, NY

Current Version | Previous Version | Graphics & Text | Print | Product List | Glossary Off
Versions: 1 2 3 4 5 6 7 8 9 10 11 12 13 14 15 16 17 18 19 20 21 22 23 24 25 26 27 28 29 30 31 32 33 34 35 36 37 38 39 40 41 42 43 44 45 46 47 48 49 50
000 ASUS41 KOKX 031308 RWROKX REGIONAL WEATHER ROUNDUP NATIONAL WEATHER SERVICE NEW YORK NY 800 AM EST SAT DEC 03 2016 NOTE: "FAIR" INDICATES FEW OR NO CLOUDS BELOW 12,000 FEET WITH NO SIGNIFICANT WEATHER AND/OR OBSTRUCTIONS TO VISIBILITY. NYZ071-072-176-178-NJZ106-104-031400- NEW YORK CITY METRO AREA CITY SKY/WX TMP DP RH WIND PRES REMARKS Central Park MOCLDY 42 25 50 VRB5G18 30.03R Wall St Helipt CLOUDY 44 28 53 VRB6 30.02R Bronx Bot Gard NOT AVBL LaGuardia APRT PTCLDY 44 28 53 NW21 30.01R Kennedy INTL PTCLDY 44 25 47 NW16G29 30.01R Breezy Point N/A 41 N/A N/A NW16G24 N/A Newark/Liberty PTCLDY 43 26 51 NW20G35 30.00R Teterboro CLEAR 42 25 50 NW17G26 30.00R $$ NYZ177-179-078>081-031400- LONG ISLAND NEW YORK CITY SKY/WX TMP DP RH WIND PRES REMARKS Jones Beach N/A 43 N/A N/A NW18G28 N/A Matinecock PT N/A 43 N/A N/A NW24 N/A Farmingdale PTCLDY 42 27 55 NW10G22 29.99R MacArthur/ISP PTCLDY 42 28 57 W14G24 29.96R Shirley CLEAR 42 29 59 NW12 29.96R Westhampton PTCLDY 42 29 59 NW13 29.97R Southampton NOT AVBL Bridgehampton NOT AVBL East Hampton N/A 41 29 60 NW12G20 29.91S Montauk N/A 43 29 57 NW20G32 29.91R $$ NYZ052-065-067-031400- HUDSON VALLEY CITY SKY/WX TMP DP RH WIND PRES REMARKS White Plains MOCLDY 41 27 57 NW20G25 29.97R Newburgh MOCLDY 39 30 70 NW12G23 29.99R WCI 32 Montgomery CLEAR 40 27 59 W23G31 29.96R WCI 30 Poughkeepsie CLOUDY 40 27 59 VRB6 29.98R Albany MOCLDY 37 27 67 NW20G29 29.97R WCI 27 $$ NJZ001-105-106-008-010-013-015-019>022-104-031400- NEW JERSEY CITY SKY/WX TMP DP RH WIND PRES REMARKS Newark/Liberty PTCLDY 43 26 51 NW20G35 30.00R Teterboro CLEAR 42 25 50 NW17G26 30.00R Caldwell PTCLDY 42 25 50 NW17G36 30.01R Somerville MOCLDY 43 27 53 NW12G24 30.03R Linden N/A N/A N/A N/A NW20G31 30.02S Sussex CLOUDY 40 26 57 MISG 30.03R Andover N/A 39 25 57 VRB7G20 30.03R WCI 34 Trenton CLOUDY 43 26 51 NW13G20 30.05R Millville CLOUDY 43 33 68 W10 30.10R Atlantic City CLOUDY 43 30 60 W15 30.08R Wrightstown MOCLDY 42 28 57 NW12 30.03S Toms River CLEAR 42 28 57 W15G21 30.05R Belmar CLEAR N/A N/A N/A W12 30.03R $$ PAZ047>061-062-071-031400- EASTERN PENNSYLVANIA CITY SKY/WX TMP DP RH WIND PRES REMARKS Philadelphia MOCLDY 44 30 57 NW17G24 30.10R Allentown CLOUDY 42 27 55 W8 30.06S Scranton CLOUDY 38 29 70 NW9 30.05R WCI 31 $$ CTZ002-004>006-009-010-012-RIZ004-006-007-MAZ004-011-015-031400- SOUTHERN NEW ENGLAND IN CT CITY SKY/WX TMP DP RH WIND PRES REMARKS Bradley INTL MOCLDY 40 26 57 NW18G30 29.92R WCI 31 Hartford PTCLDY 40 27 59 NW13G24 29.93R WCI 32 Danbury CLOUDY 39 27 62 W6 29.97R WCI 35 Wtrbury/Oxford MOCLDY 37 25 60 NW6 29.94R WCI 33 Bridgeport CLEAR 43 28 55 W15G22 29.96R Meriden PTCLDY 41 28 60 VRB7 29.94R New Haven PTCLDY 41 29 62 NW7 29.95R Chester N/A 39 27 60 W8G17 29.91R WCI 34 Groton MOCLDY 44 29 55 NW15G23 29.90R Wilimantic MOCLDY 41 27 57 NW10G22 29.91R IN RI CITY SKY/WX TMP DP RH WIND PRES REMARKS Providence PTCLDY 40 25 55 NW8G20 29.87R WCI 34 Block Island PTCLDY 41 29 62 NW16G26 29.89R Westerly PTCLDY 42 25 50 NW12G23 29.90R IN MA CITY SKY/WX TMP DP RH WIND PRES REMARKS Boston CLEAR 39 27 62 W12 29.83R WCI 32 Worcester CLEAR 34 24 67 W16G28 29.82R WCI 24 Westfield MOCLDY 38 26 62 NW14 29.91R WCI 30 Provincetown PTCLDY 42 30 62 NW25G35 29.81R Nantucket SUNNY 42 27 55 NW22G30 29.81R $$ ANZ330-335-338-340-345-350-353-355-031400- COASTAL MARINE OBSERVATIONS STATION/POSITION TIME SKY/WX TEMP WIND PRES VSBY WAVE AIR SEA DIR/SP/G HT/PER (UTC) (F) (DEG/KT/KT) (MB) (MI) (FT/S) NY HARB ENTRANCE 1150 45 54 310/ 23/ 29 1015.0 5/ 4 20 S FIRE ISLAND 1150 45 54 310/ 27/ 33 1013.9 7/ 6 GREAT SOUTH BAY 1230 42 45 N/A 23 SSW MONTAUK P 1150 45 56 290/ 23/ 27 1012.3 7/ 7 15 E BARNEGAT LI 1230 54 N/A 5/ 5 HUDSON CANYON 1150 48 58 1013.6 11/ 8 KINGS POINT 1230 43 48 1015.6 EXECUTION ROCKS 1245 44 300/ 14/ 17 N/A CENTRAL LI SOUND 1230 44 51 310/ 16/ 21 N/A 3/ 4 EASTERN LI SOUND NOT AVBL ROBBINS REEF 1230 42 310/ 22/ 26 1015.9 $$ >>>>>>>>>>>>>>>>>>>>>>>>>>>> KEY <<<<<<<<<<<<<<<<<<<<<<<<<<< > < > SKY/WX - Sky Condition/Present Weather < > TMP - Temperature in Fahrenheit < > DP - Dew Point in Fahrenheit < > RH - Relative Humidity in Percent < > WIND - Direction (from) and Speed in MPH < > PRES - Mean Sea Level Pressure (inches of Hg) < > WCI - Wind Chill Index < > VSB - VISIBILITY IN MILES < > HX - HEAT INDEX < > TC - TEMPERATURE IN CELSIUS < > VRB - VARIABLE WIND DIRECTION < > < >>>>>>>>>>>>>>>>>>>>>>>>>>>> KEY <<<<<<<<<<<<<<<<<<<<<<<<<<<

USA.gov is the U.S. government's official web portal to all federal, state and local government web resources and services.